Kecskemet, Hungary

5:29 PM CEST on April 25, 2017 (GMT +0200)
Kecskemet

Weather History for LHKE - March, 2013

Change the Weather History Date:

Friday, March 22, 2013

  Actual Average (LHBP) Record (LHBP)
Temperature  
Mean Temperature 38 °F -  
Max Temperature 46 °F 50 °F 71 °F (2017)
Min Temperature 30 °F 31 °F 17 °F (2003)
Degree Days  
Heating Degree Days 27    
Moisture  
Dew Point 30 °F    
Average Humidity 79    
Maximum Humidity 100    
Minimum Humidity 49    
Precipitation  
Precipitation 0.00 in - - ()
Sea Level Pressure  
Sea Level Pressure 29.81 in    
Wind  
Wind Speed 17 mph ()    
Max Wind Speed 22 mph    
Max Gust Speed 31 mph    
Visibility 4.0 miles    
Events Fog , Rain , Snow    
Averages and records for this station are not official NWS values.
T = Trace of Precipitation, MM = Missing Value Source: Averaged Metar Reports

Daily Weather History Graph

Daily Weather History Graph

Search for Another Location

Airport or City:

Trip Planner

Search our weather history database for the weather conditions in past years. The results will help you decide how hot, cold, wet, or windy it might be!

Date:

Astronomy

Mar. 22, 2013 Rise Set
Actual Time 5:40 AM CET 5:56 PM CET
Civil Twilight 5:09 AM CET 6:26 PM CET
Nautical Twilight 4:34 AM CET 7:02 PM CET
Astronomical Twilight 3:57 AM CET 7:39 PM CET
Moon 12:49 PM CET (3/22) 2:46 AM CET (3/22)
Length of Visible Light 13h 17m
Length of Day
12h 16m
Waxing Gibbous, 75% of the Moon is Illuminated
Mar 22
Waxing Gibbous
Mar 27
Full
Apr 3
Last Quarter
Apr 10
New
Apr 18
First Quarter

Hourly Weather History & Observations

Time (CET) Temp. Windchill Dew Point Humidity Pressure Visibility Wind Dir Wind Speed Gust Speed Precip Events Conditions
12:15 AM 35.6 °F 24.7 °F 33.8 °F 93% 29.74 in 3.7 mi WNW 20.1 mph 31.3 mph N/A Rain Light Rain
12:45 AM 33.8 °F 23.0 °F 33.8 °F 100% 29.74 in 3.7 mi WNW 17.9 mph - N/A Rain , Snow Light Rain
1:15 AM 33.8 °F 23.0 °F 32.0 °F 93% 29.74 in 3.7 mi WNW 17.9 mph 29.1 mph N/A Rain , Snow Light Rain
1:45 AM 33.8 °F 23.0 °F 32.0 °F 93% 29.74 in 3.1 mi WNW 17.9 mph - N/A Rain , Snow Light Rain
2:15 AM 33.8 °F 21.7 °F 32.0 °F 93% 29.74 in 3.1 mi WNW 22.4 mph - N/A Rain , Snow Light Rain
2:45 AM 33.8 °F 22.3 °F 32.0 °F 93% 29.74 in 3.1 mi WNW 20.1 mph - N/A Rain , Snow Light Rain
3:15 AM 33.8 °F 23.0 °F 30.2 °F 87% 29.74 in 3.1 mi NW 17.9 mph - N/A Rain , Snow Light Rain
3:45 AM 33.8 °F 22.3 °F 30.2 °F 87% 29.74 in 5.0 mi NW 20.1 mph - N/A Rain , Snow Light Rain
4:15 AM 33.8 °F 23.0 °F 32.0 °F 93% 29.74 in 0.9 mi NW 17.9 mph - N/A Snow Snow
4:45 AM 33.8 °F 22.3 °F 32.0 °F 93% 29.74 in 0.9 mi NW 20.1 mph - N/A Snow Snow
5:00 AM - - - N/A% - 6.2 mi NW 17.9 mph 29.1 mph N/A   Mostly Cloudy
5:15 AM 32.0 °F 20.0 °F 32.0 °F 100% 29.74 in 0.6 mi NW 20.1 mph 31.3 mph N/A Snow Heavy Snow
5:42 AM 32.0 °F 20.0 °F 32.0 °F 100% 29.74 in 0.5 mi NW 20.1 mph - N/A Fog , Snow Heavy Snow
5:45 AM - - - N/A% - 3.1 mi NW 17.9 mph 29.1 mph N/A   Overcast
6:08 AM 32.0 °F 19.4 °F 32.0 °F 100% 29.74 in 0.4 mi WNW 22.4 mph - N/A Fog , Snow Heavy Snow
6:15 AM 32.0 °F 19.4 °F 32.0 °F 100% 29.74 in 0.3 mi WNW 22.4 mph - N/A Fog , Snow Heavy Snow
6:45 AM 32.0 °F 20.0 °F 32.0 °F 100% 29.74 in 0.3 mi WNW 20.1 mph - N/A Fog , Snow Heavy Snow
7:15 AM 32.0 °F 19.4 °F 32.0 °F 100% 29.74 in 0.5 mi WNW 22.4 mph - N/A Fog , Snow Snow
7:45 AM 32.0 °F 20.0 °F 32.0 °F 100% 29.77 in 0.7 mi WNW 20.1 mph - N/A Snow Light Snow
7:59 AM 32.0 °F 19.4 °F 30.2 °F 93% 29.77 in 0.9 mi WNW 22.4 mph - N/A Snow Light Snow
8:05 AM 33.8 °F 21.7 °F 30.2 °F 87% 29.77 in 1.9 mi WNW 22.4 mph - N/A Snow Light Snow
8:15 AM 33.8 °F 21.7 °F 30.2 °F 87% 29.77 in 2.5 mi WNW 22.4 mph - N/A Snow Light Snow
8:45 AM - - - N/A% - 5.0 mi NNW 17.9 mph 29.1 mph N/A   Mostly Cloudy
9:15 AM 35.6 °F 24.7 °F 30.2 °F 81% 29.77 in 5.0 mi NW 20.1 mph 31.3 mph N/A   Overcast
9:25 AM 35.6 °F 24.7 °F 30.2 °F 81% 29.77 in 5.0 mi NW 20.1 mph 31.3 mph N/A Snow Light Snow
9:45 AM 35.6 °F 24.7 °F 30.2 °F 81% 29.77 in 6.2 mi NW 20.1 mph 31.3 mph N/A   Overcast
10:15 AM 37.4 °F 26.5 °F 30.2 °F 75% 29.80 in 6.2 mi NW 22.4 mph - N/A   Overcast
10:45 AM 39.2 °F 28.9 °F 30.2 °F 70% 29.80 in 6.2 mi NW 22.4 mph - N/A   Mostly Cloudy
11:15 AM 39.2 °F 29.4 °F 30.2 °F 70% 29.80 in - NW 20.1 mph - N/A   Clear
11:45 AM - - - N/A% - 6.2 mi NW 15.7 mph - N/A   Overcast
12:15 PM 44.6 °F 36.5 °F 32.0 °F 61% 29.80 in 6.2 mi WNW 20.1 mph 31.3 mph N/A   Mostly Cloudy
12:45 PM 44.6 °F 36.5 °F 30.2 °F 57% 29.80 in 6.2 mi WNW 20.1 mph - N/A   Mostly Cloudy
1:15 PM 44.6 °F 36.5 °F 32.0 °F 61% 29.80 in 6.2 mi WNW 20.1 mph - N/A   Scattered Clouds
1:45 PM 46.4 °F 38.9 °F 30.2 °F 53% 29.80 in 6.2 mi WNW 20.1 mph - N/A   Scattered Clouds
2:15 PM 46.4 °F 38.4 °F 30.2 °F 53% 29.80 in 6.2 mi WNW 22.4 mph - N/A   Scattered Clouds
2:45 PM - - - N/A% - 6.2 mi NW 11.2 mph - N/A   Overcast
3:15 PM 44.6 °F 36.5 °F 28.4 °F 53% 29.80 in - WNW 20.1 mph - N/A   Clear
3:45 PM 44.6 °F 36.5 °F 28.4 °F 53% 29.80 in - WNW 20.1 mph - N/A   Clear
4:15 PM 42.8 °F 34.1 °F 26.6 °F 53% 29.83 in - WNW 20.1 mph - N/A   Clear
4:45 PM 42.8 °F 34.1 °F 24.8 °F 49% 29.83 in - NW 20.1 mph - N/A   Clear
5:15 PM 41.0 °F 32.3 °F 24.8 °F 53% 29.86 in - NW 17.9 mph - N/A   Clear
5:45 PM - - - N/A% - 6.2 mi NNE 8.9 mph - N/A   Clear
6:15 PM 37.4 °F 30.9 °F 26.6 °F 65% 29.89 in - WNW 8.9 mph - N/A   Clear
6:45 PM 37.4 °F 30.9 °F 26.6 °F 65% 29.89 in - WNW 8.9 mph - N/A   Clear
7:15 PM 37.4 °F 29.9 °F 26.6 °F 65% 29.92 in 6.2 mi WNW 11.2 mph - N/A   Overcast
7:45 PM 35.6 °F 27.7 °F 24.8 °F 65% 29.92 in 6.2 mi WNW 11.2 mph - N/A   Overcast
8:15 PM 35.6 °F 28.7 °F 26.6 °F 70% 29.92 in - NW 8.9 mph - N/A   Clear
8:45 PM - - - N/A% - 6.2 mi ENE 8.9 mph - N/A   Clear
9:15 PM 35.6 °F 31.8 °F 24.8 °F 65% 29.95 in - NNW 4.5 mph - N/A   Clear
9:45 PM 30.2 °F 25.5 °F 24.8 °F 80% 29.95 in 6.2 mi NW 4.5 mph - N/A   Mostly Cloudy
10:15 PM 30.2 °F 23.5 °F 26.6 °F 86% 29.95 in 5.0 mi West 6.7 mph - N/A   Unknown
10:45 PM 30.2 °F 23.5 °F 26.6 °F 86% 29.98 in 5.0 mi WNW 6.7 mph - N/A   Unknown
11:15 PM 30.2 °F 23.5 °F 26.6 °F 86% 29.98 in 5.0 mi WNW 6.7 mph - N/A   Unknown
11:45 PM - - - N/A% - 3.1 mi North - - N/A   Mostly Cloudy